SPOT 4

Satellite information

Favourite Embed

Satellite Type and Status

PAYLOADIN ORBIT

Key statistics

Satellite SPOT 4 at a glance.

Uptime

10073

Days in orbit

Revolutions

≈ 14.6

Per day

Orbit

SSO

Sun Synchronous Orbit

Inclination

98.3

Latest

Satellite identification and parameters

Extended collection of information and parameters for SPOT 4.

Object identification

Identified? True

Debris? False

Object name: SPOT 4

International designator: 1998-017A

Object number (NORAD): 25260

Object ID (CCSDS): 25260

Country: FRANCE (FR)

Current information (Y/N): Y

RCS size: LARGE

Orbital parameters

Period: 98.912 minutes

Inclination: 98.251 deg

SMA: 7084.796 km

Apoapsis: 714.83 km

Periapsis: 698.492 km

RAAN: 27.3557 deg

Eccentricy: 0.00115308

Argument of periapsis: 240.1611 deg

Mean anomaly: 119.8441 deg

Mean motion: 14.55833584 rev/day

Mean motion (dot): 0.00000866 rev/day2

B* drag term: 0.00020787642 1/REarth

Two-line elements (TLE)

Creation date: Oct. 21, 2025, 3:26 a.m.

Reference frame: TEME

Reference center: EARTH

Epoch: Oct. 20, 2025, 8:14 p.m. UTC

TLE line 0: 0 SPOT 4

TLE line 1: 1 25260U 98017A 25293.84345384 .00000866 00000-0 20788-3 0 9998

TLE line 2: 2 25260 98.2510 27.3557 0011531 240.1611 119.8441 14.55833584444485

Live tracking on map

Real-time ground track for satellite SPOT 4.

In-orbit conjunctions

A list of the most updated potential collisions computed for object SPOT 4.

Target Orbit TCA Probability of collision Miss distance Type
OV3-3 LEO 2025-06-06 11:54:39 0.0002252803 407.0 (m) PAYLOAD
CZ-6A DEB LEO 2025-02-12 23:19:40 0.0001832623 302.0 (m) DEBRIS
CZ-6A DEB LEO 2025-02-09 06:15:35 0.0001552856 803.0 (m) DEBRIS
CZ-6A DEB SSO 2024-11-07 11:27:37 0.0005535772 517.0 (m) DEBRIS
NOAA 17 DEB SSO 2024-10-24 02:33:29 0.0001056789 536.0 (m) DEBRIS

Associated space launch

The satellites SPOT 4 (Satellite Probatoire de l'Observation de la Terre) was a second generation of SPOT earth observation satellite operated by Spot Image.

SPOT 4 was lifted into orbit during the mission ‘Ariane 40 | SPOT-4’, on board a Ariane 40 space rocket.

The launch took place on March 24, 1998, 1:46 a.m. from Ariane Launch Area 2.

For more information about the launch, click the button.

Launch to space Ariane 40 | SPOT-4
Ariane 40 | SPOT-4

Agency: N/A

Status: Launch Successful

Launch date: March 24, 1998, 1:46 a.m. UTC

Rocket: Ariane 40

Launch pad: Ariane Launch Area 2

Location: Guiana Space Centre, French Guiana

...

Latest news about this satellite

There are no fresh news available about this satellite. Check back as we update our databases every day.


Newsletter sign-up

Weekly statistics, charts and insights to help you stay on top of the space industry.